Flag for China Weather past 2 weeks in Lanzhou, Gansu, China

Now
61 °F

Passing clouds.


Feels Like: 61 °F
Forecast: 46 / 72 °F
Wind: 6 mph from South

Location: Lanzhou / Zhongchuan

Current Time: Sep 24, 2014 at 12:59:37 PM

Latest Report: Sep 24, 2014 at 12:00 PM


Visibility: N/A

Pressure: 30.15 "Hg

Humidity: 68%

Dew point: 50 °F

Location of LanzhouLocation

Historic Weather in Lanzhou — Graph

°F

Lanzhou temperature yesterday

Maximum temperature yesterday: 61 °F (at 4:00 PM)
Minimum temperature yesterday: 45 °F (at 2:00 AM)
Average temperature yesterday: 51 °F

Past Weeks' High & Low Weather Summary

 TemperatureHumidityPressure
High77 °F (Sep 9, 3:00 PM)100% (Sep 10, 10:00 PM)30.30 "Hg (Sep 10, 10:00 PM)
Low41 °F (Sep 24, 5:00 AM)28% (Sep 9, 5:00 PM)29.95 "Hg (Sep 10, 4:00 PM)
Average56 °F77%30.14 "Hg
* Reported Sep 9 12:00 Noon — Sep 24 12:00 Noon, Lanzhou, Weather by CustomWeather, © 2014

Note: Actual official high and low records may vary slightly from our data, if they occured in-between our weather recording intervals... More about our weather records

Advertising

Lanzhou weather history for previous 24 hours

 ConditionsComfort  
Time TempWeatherWind HumidityBarometerVisibility
12:00 PM
Sep 24
61 °FPassing clouds.6 mph68%30.15 "HgN/A
11:00 AM57 °FFog.6 mph72%30.18 "Hg3 mi
10:00 AM54 °FFog.8 mph82%30.21 "Hg2 mi
9:00 AM50 °FFog.No wind88%30.21 "Hg2 mi
8:00 AM45 °FFog.No wind93%30.21 "Hg1 mi
7:00 AM41 °FFog.3 mph93%30.18 "Hg2 mi
6:00 AM41 °FFog.3 mph100%30.18 "Hg2 mi
5:00 AM41 °FFog.3 mph100%30.18 "Hg2 mi
4:00 AM43 °FFog.3 mph93%30.21 "Hg2 mi
3:00 AM43 °FFog.3 mph100%30.21 "Hg2 mi
2:00 AM45 °FFog.6 mph100%30.21 "Hg2 mi
1:00 AM45 °FFog.3 mph100%30.24 "Hg2 mi
12:00 AM46 °FFog.3 mph93%30.24 "Hg2 mi
11:00 PM
Sep 23
46 °FFog.3 mph93%30.24 "Hg2 mi
10:00 PM50 °FClear.3 mph88%30.24 "Hg4 mi
9:00 PM50 °FClear.3 mph94%30.24 "Hg4 mi
8:00 PM54 °FClear.1 mph82%30.21 "Hg4 mi
7:00 PM57 °FSunny.3 mph72%30.18 "Hg10 mi
6:00 PM59 °FSunny.6 mph72%30.18 "Hg10 mi
5:00 PM61 °FPassing clouds.6 mph63%30.18 "HgN/A
4:00 PM61 °FPassing clouds.3 mph63%30.18 "HgN/A
3:00 PM59 °FPassing clouds.3 mph68%30.21 "HgN/A
2:00 PM59 °FScattered clouds.3 mph68%30.21 "HgN/A
1:00 PM55 °FScattered clouds.6 mph72%30.24 "HgN/A
12:00 PM54 °FScattered clouds.8 mph77%30.27 "HgN/A
Weather by CustomWeather, © 2014

See weather overviewHow to use our weather pages